Simultaneous Nadir Overpasses (SNOs) Predictions

Prediction of SNOs between LANDSAT-8 and METOP-A Satellite Orbit:

Table of predicted SNOs for the next 14.0 days since TLE Epoch: 12/13/2015
Index Date (LANDSAT-8) Time (LANDSAT-8) Lat,Lon (LANDSAT-8) SZA (LANDSAT-8 ) Date (METOP-A) Time (METOP-A) Lat,Lon (METOP-A) SZA (METOP-A ) Distance(km) Time Diff (sec)
1 12/14/2015 16:29:15 -81.09, 152.11 73.68 12/14/2015 16:28:03 -81.09, 151.95 73.73 2.81 72
2 12/14/2015 17:18:40 81.12, -39.78 106.39 12/14/2015 17:18:41 81.12, -39.85 106.38 1.27 1
3 12/14/2015 18:07:51 -81.45, 133.82 72.77 12/14/2015 18:09:05 -81.28, 134.11 72.82 19.79 74
4 12/17/2015 12:03:31 -81.09,-141.49 73.59 12/17/2015 12:02:27 -81.09,-141.58 73.62 1.58 64
5 12/17/2015 12:52:56 81.12, 26.59 106.48 12/17/2015 12:53:05 81.12, 26.62 106.49 0.47 9
6 12/20/2015 07:37:45 -81.11, -74.84 73.52 12/20/2015 07:36:49 -81.11, -74.78 73.53 0.93 56
7 12/20/2015 08:27:10 81.13, 93.23 106.55 12/20/2015 08:27:27 81.14, 93.42 106.58 3.30 17
8 12/23/2015 03:12:00 -81.11, -8.29 73.53 12/23/2015 03:11:13 -81.11, -8.40 73.56 2.17 47
9 12/23/2015 04:01:25 81.14, 159.75 106.54 12/23/2015 04:01:51 81.13, 159.80 106.55 0.89 26
10 12/25/2015 22:46:15 -81.11, 58.16 73.61 12/25/2015 22:45:36 -81.12, 58.31 73.61 2.53 39




NCC Satellite Simultaneous Nadir Overpasses (SNOs) Prediction Service
